Year,Month,Day,Hour,Minute,Value (Times are PST for temperature in C)
2009,05,20,00,00,9.50
2009,05,20,00,01,9.60
2009,05,20,00,02,9.60
2009,05,20,00,03,9.60
2009,05,20,00,04,9.60
2009,05,20,00,05,9.60
2009,05,20,00,06,9.60
2009,05,20,00,07,9.60
2009,05,20,00,08,9.60
2009,05,20,00,09,9.60
2009,05,20,00,10,9.60
2009,05,20,00,11,9.70
2009,05,20,00,12,9.70
2009,05,20,00,13,9.70
2009,05,20,00,14,9.70
2009,05,20,00,15,9.70
2009,05,20,00,16,9.70
2009,05,20,00,17,9.70
2009,05,20,00,18,9.70
2009,05,20,00,19,9.70
2009,05,20,00,20,9.70
2009,05,20,00,21,9.70
2009,05,20,00,22,9.70
2009,05,20,00,23,9.70
2009,05,20,00,24,9.70
2009,05,20,00,25,9.70
2009,05,20,00,26,9.70
2009,05,20,00,27,9.60
2009,05,20,00,28,9.60
2009,05,20,00,29,9.60
2009,05,20,00,30,9.60
2009,05,20,00,31,9.60
2009,05,20,00,32,9.60
2009,05,20,00,33,9.60
2009,05,20,00,34,9.60
2009,05,20,00,35,9.60
2009,05,20,00,36,9.60
2009,05,20,00,37,9.60
2009,05,20,00,38,9.60
2009,05,20,00,39,9.60
2009,05,20,00,40,9.60
2009,05,20,00,41,9.60
2009,05,20,00,42,9.60
2009,05,20,00,43,9.60
2009,05,20,00,44,9.60
2009,05,20,00,45,9.60
2009,05,20,00,46,9.60
2009,05,20,00,47,9.60
2009,05,20,00,48,9.60
2009,05,20,00,49,9.60
2009,05,20,00,50,9.60
2009,05,20,00,51,9.60
2009,05,20,00,52,9.60
2009,05,20,00,53,9.60
2009,05,20,00,54,9.60
2009,05,20,00,55,9.60
2009,05,20,00,56,9.60
2009,05,20,00,57,9.50
2009,05,20,00,58,9.50
2009,05,20,00,59,9.50
2009,05,20,01,00,9.50
2009,05,20,01,01,9.50
2009,05,20,01,02,9.50
2009,05,20,01,03,9.50
2009,05,20,01,04,9.40
2009,05,20,01,05,9.40
2009,05,20,01,06,9.40
2009,05,20,01,07,9.40
2009,05,20,01,08,9.40
2009,05,20,01,09,9.40
2009,05,20,01,10,9.40
2009,05,20,01,11,9.50
2009,05,20,01,12,9.50
2009,05,20,01,13,9.50
2009,05,20,01,14,9.50
2009,05,20,01,15,9.50
2009,05,20,01,16,9.50
2009,05,20,01,17,9.50
2009,05,20,01,18,9.60
2009,05,20,01,19,9.60
2009,05,20,01,20,9.60
2009,05,20,01,21,9.60
2009,05,20,01,22,9.60
2009,05,20,01,23,9.60
2009,05,20,01,24,9.60
2009,05,20,01,25,9.50
2009,05,20,01,26,9.50
2009,05,20,01,27,9.50
2009,05,20,01,28,9.50
2009,05,20,01,29,9.40
2009,05,20,01,30,9.40
2009,05,20,01,31,9.40
2009,05,20,01,32,9.40
2009,05,20,01,33,9.40
2009,05,20,01,34,9.40
2009,05,20,01,35,9.40
2009,05,20,01,36,9.50
2009,05,20,01,37,9.50
2009,05,20,01,38,9.50
2009,05,20,01,39,9.50
2009,05,20,01,40,9.50
2009,05,20,01,41,9.50
2009,05,20,01,42,9.60
2009,05,20,01,43,9.60
2009,05,20,01,44,9.60
2009,05,20,01,45,9.60
2009,05,20,01,46,9.60
2009,05,20,01,47,9.60
2009,05,20,01,48,9.60
2009,05,20,01,49,9.60
2009,05,20,01,50,9.60
2009,05,20,01,51,9.60
2009,05,20,01,52,9.60
2009,05,20,01,53,9.60
2009,05,20,01,54,9.60
2009,05,20,01,55,9.60
2009,05,20,01,56,9.60
2009,05,20,01,57,9.60
2009,05,20,01,58,9.60
2009,05,20,01,59,9.60
2009,05,20,02,00,9.60
2009,05,20,02,01,9.60
2009,05,20,02,02,9.60
2009,05,20,02,03,9.60
2009,05,20,02,04,9.60
2009,05,20,02,05,9.60
2009,05,20,02,06,9.60
2009,05,20,02,07,9.60
2009,05,20,02,08,9.60
2009,05,20,02,09,9.60
2009,05,20,02,10,9.50
2009,05,20,02,11,9.50
2009,05,20,02,12,9.50
2009,05,20,02,13,9.50
2009,05,20,02,14,9.50
2009,05,20,02,15,9.50
2009,05,20,02,16,9.50
2009,05,20,02,17,9.40
2009,05,20,02,18,9.40
2009,05,20,02,19,9.40
2009,05,20,02,20,9.40
2009,05,20,02,21,9.40
2009,05,20,02,22,9.30
2009,05,20,02,23,9.30
2009,05,20,02,24,9.30
2009,05,20,02,25,9.30
2009,05,20,02,26,9.30
2009,05,20,02,27,9.30
2009,05,20,02,28,9.30
2009,05,20,02,29,9.20
2009,05,20,02,30,9.20
2009,05,20,02,31,9.20
2009,05,20,02,32,9.10
2009,05,20,02,33,9.10
2009,05,20,02,34,9.10
2009,05,20,02,35,9.00
2009,05,20,02,36,9.00
2009,05,20,02,37,9.00
2009,05,20,02,38,9.00
2009,05,20,02,39,8.90
2009,05,20,02,40,8.90
2009,05,20,02,41,8.90
2009,05,20,02,42,8.90
2009,05,20,02,43,8.90
2009,05,20,02,44,8.90
2009,05,20,02,45,8.90
2009,05,20,02,46,8.90
2009,05,20,02,47,8.80
2009,05,20,02,48,8.80
2009,05,20,02,49,8.80
2009,05,20,02,50,8.80
2009,05,20,02,51,8.80
2009,05,20,02,52,8.80
2009,05,20,02,53,8.80
2009,05,20,02,54,8.80
2009,05,20,02,55,8.80
2009,05,20,02,56,8.80
2009,05,20,02,57,8.70
2009,05,20,02,58,8.70
2009,05,20,02,59,8.70
2009,05,20,03,00,8.70
2009,05,20,03,01,8.70
2009,05,20,03,02,8.60
2009,05,20,03,03,8.60
2009,05,20,03,04,8.60
2009,05,20,03,05,8.60
2009,05,20,03,06,8.60
2009,05,20,03,07,8.60
2009,05,20,03,08,8.60
2009,05,20,03,09,8.50
2009,05,20,03,10,8.50
2009,05,20,03,11,8.50
2009,05,20,03,12,8.50
2009,05,20,03,13,8.50
2009,05,20,03,14,8.50
2009,05,20,03,15,8.40
2009,05,20,03,16,8.50
2009,05,20,03,17,8.40
2009,05,20,03,18,8.40
2009,05,20,03,19,8.40
2009,05,20,03,20,8.40
2009,05,20,03,21,8.40
2009,05,20,03,22,8.40
2009,05,20,03,23,8.40
2009,05,20,03,24,8.40
2009,05,20,03,25,8.40
2009,05,20,03,26,8.40
2009,05,20,03,27,8.40
2009,05,20,03,28,8.40
2009,05,20,03,29,8.40
2009,05,20,03,30,8.40
2009,05,20,03,31,8.40
2009,05,20,03,32,8.40
2009,05,20,03,33,8.50
2009,05,20,03,34,8.50
2009,05,20,03,35,8.50
2009,05,20,03,36,8.50
2009,05,20,03,37,8.50
2009,05,20,03,38,8.50
2009,05,20,03,39,8.50
2009,05,20,03,40,8.50
2009,05,20,03,41,8.50
2009,05,20,03,42,8.50
2009,05,20,03,43,8.50
2009,05,20,03,44,8.50
2009,05,20,03,45,8.50
2009,05,20,03,46,8.50
2009,05,20,03,47,8.60
2009,05,20,03,48,8.60
2009,05,20,03,49,8.60
2009,05,20,03,50,8.60
2009,05,20,03,51,8.50
2009,05,20,03,52,8.60
2009,05,20,03,53,8.50
2009,05,20,03,54,8.50
2009,05,20,03,55,8.50
2009,05,20,03,56,8.50
2009,05,20,03,57,8.50
2009,05,20,03,58,8.50
2009,05,20,03,59,8.50
2009,05,20,04,00,8.50
2009,05,20,04,01,8.50
2009,05,20,04,02,8.50
2009,05,20,04,03,8.60
2009,05,20,04,04,8.60
2009,05,20,04,05,8.60
2009,05,20,04,06,8.60
2009,05,20,04,07,8.60
2009,05,20,04,08,8.60
2009,05,20,04,09,8.60
2009,05,20,04,10,8.60
2009,05,20,04,11,8.60
2009,05,20,04,12,8.60
2009,05,20,04,13,8.60
2009,05,20,04,14,8.60
2009,05,20,04,15,8.60
2009,05,20,04,16,8.60
2009,05,20,04,17,8.60
2009,05,20,04,18,8.50
2009,05,20,04,19,8.50
2009,05,20,04,20,8.50
2009,05,20,04,21,8.50
2009,05,20,04,22,8.50
2009,05,20,04,23,8.50
2009,05,20,04,24,8.50
2009,05,20,04,25,8.40
2009,05,20,04,26,8.40
2009,05,20,04,27,8.40
2009,05,20,04,28,8.40
2009,05,20,04,29,8.50
2009,05,20,04,30,8.50
2009,05,20,04,31,8.50
2009,05,20,04,32,8.50
2009,05,20,04,33,8.50
2009,05,20,04,34,8.50
2009,05,20,04,35,8.50
2009,05,20,04,36,8.50
2009,05,20,04,37,8.50
2009,05,20,04,38,8.50
2009,05,20,04,39,8.50
2009,05,20,04,40,8.50
2009,05,20,04,41,8.50
2009,05,20,04,42,8.40
2009,05,20,04,43,8.40
2009,05,20,04,44,8.40
2009,05,20,04,45,8.40
2009,05,20,04,46,8.40
2009,05,20,04,47,8.40
2009,05,20,04,48,8.30
2009,05,20,04,49,8.30
2009,05,20,04,50,8.30
2009,05,20,04,51,8.30
2009,05,20,04,52,8.30
2009,05,20,04,53,8.30
2009,05,20,04,54,8.30
2009,05,20,04,55,8.30
2009,05,20,04,56,8.30
2009,05,20,04,57,8.30
2009,05,20,04,58,8.30
2009,05,20,04,59,8.30
2009,05,20,05,00,8.30
2009,05,20,05,01,8.30
2009,05,20,05,02,8.30
2009,05,20,05,03,8.30
2009,05,20,05,04,8.30
2009,05,20,05,05,8.20
2009,05,20,05,06,8.20
2009,05,20,05,07,8.20
2009,05,20,05,08,8.20
2009,05,20,05,09,8.20
2009,05,20,05,10,8.20
2009,05,20,05,11,8.20
2009,05,20,05,12,8.10
2009,05,20,05,13,8.10
2009,05,20,05,14,8.10
2009,05,20,05,15,8.10
2009,05,20,05,16,8.10
2009,05,20,05,17,8.10
2009,05,20,05,18,8.10
2009,05,20,05,19,8.10
2009,05,20,05,20,8.10
2009,05,20,05,21,8.00
2009,05,20,05,22,8.00
2009,05,20,05,23,7.90
2009,05,20,05,24,7.90
2009,05,20,05,25,7.90
2009,05,20,05,26,7.90
2009,05,20,05,27,7.90
2009,05,20,05,28,7.90
2009,05,20,05,29,7.90
2009,05,20,05,30,7.90
2009,05,20,05,31,7.90
2009,05,20,05,32,7.80
2009,05,20,05,33,7.80
2009,05,20,05,34,7.80
2009,05,20,05,35,7.80
2009,05,20,05,36,7.80
2009,05,20,05,37,7.80
2009,05,20,05,38,7.80
2009,05,20,05,39,7.80
2009,05,20,05,40,7.80
2009,05,20,05,41,7.80
2009,05,20,05,42,7.70
2009,05,20,05,43,7.70
2009,05,20,05,44,7.70
2009,05,20,05,45,7.70
2009,05,20,05,46,7.70
2009,05,20,05,47,7.70
2009,05,20,05,48,7.70
2009,05,20,05,49,7.70
2009,05,20,05,50,7.70
2009,05,20,05,51,7.70
2009,05,20,05,52,7.70
2009,05,20,05,53,7.70
2009,05,20,05,54,7.70
2009,05,20,05,55,7.70
2009,05,20,05,56,7.70
2009,05,20,05,57,7.70
2009,05,20,05,58,7.70
2009,05,20,05,59,7.70
2009,05,20,06,00,7.70
2009,05,20,06,01,7.70
2009,05,20,06,02,7.70
2009,05,20,06,03,7.70
2009,05,20,06,04,7.70
2009,05,20,06,05,7.70
2009,05,20,06,06,7.70
2009,05,20,06,07,7.70
2009,05,20,06,08,7.70
2009,05,20,06,09,7.70
2009,05,20,06,10,7.70
2009,05,20,06,11,7.70
2009,05,20,06,12,7.70
2009,05,20,06,13,7.70
2009,05,20,06,14,7.80
2009,05,20,06,15,7.80
2009,05,20,06,16,7.80
2009,05,20,06,17,7.80
2009,05,20,06,18,7.80
2009,05,20,06,19,7.80
2009,05,20,06,20,7.90
2009,05,20,06,21,7.90
2009,05,20,06,22,7.90
2009,05,20,06,23,7.90
2009,05,20,06,24,8.00
2009,05,20,06,25,8.00
2009,05,20,06,26,8.00
2009,05,20,06,27,8.10
2009,05,20,06,28,8.10
2009,05,20,06,29,8.10
2009,05,20,06,30,8.10
2009,05,20,06,31,8.20
2009,05,20,06,32,8.20
2009,05,20,06,33,8.20
2009,05,20,06,34,8.30
2009,05,20,06,35,8.30
2009,05,20,06,36,8.30
2009,05,20,06,37,8.30
2009,05,20,06,38,8.30
2009,05,20,06,39,8.40
2009,05,20,06,40,8.40
2009,05,20,06,41,8.40
2009,05,20,06,42,8.40
2009,05,20,06,43,8.50
2009,05,20,06,44,8.50
2009,05,20,06,45,8.60
2009,05,20,06,46,8.60
2009,05,20,06,47,8.60
2009,05,20,06,48,8.60
2009,05,20,06,49,8.60
2009,05,20,06,50,8.60
2009,05,20,06,51,8.70
2009,05,20,06,52,8.70
2009,05,20,06,53,8.70
2009,05,20,06,54,8.70
2009,05,20,06,55,8.80
2009,05,20,06,56,8.80
2009,05,20,06,57,8.80
2009,05,20,06,58,8.90
2009,05,20,06,59,8.90
2009,05,20,07,00,8.90
2009,05,20,07,01,9.00
2009,05,20,07,02,9.00
2009,05,20,07,03,9.10
2009,05,20,07,04,9.10
2009,05,20,07,05,9.10
2009,05,20,07,06,9.10
2009,05,20,07,07,9.20
2009,05,20,07,08,9.20
2009,05,20,07,09,9.20
2009,05,20,07,10,9.20
2009,05,20,07,11,9.30
2009,05,20,07,12,9.30
2009,05,20,07,13,9.30
2009,05,20,07,14,9.30
2009,05,20,07,15,9.40
2009,05,20,07,16,9.40
2009,05,20,07,17,9.40
2009,05,20,07,18,9.50
2009,05,20,07,19,9.60
2009,05,20,07,20,9.60
2009,05,20,07,21,9.60
2009,05,20,07,22,9.70
2009,05,20,07,23,9.70
2009,05,20,07,24,9.70
2009,05,20,07,25,9.80
2009,05,20,07,26,9.80
2009,05,20,07,27,9.80
2009,05,20,07,28,9.80
2009,05,20,07,29,9.90
2009,05,20,07,30,9.90
2009,05,20,07,31,9.90
2009,05,20,07,32,10.00
2009,05,20,07,33,10.10
2009,05,20,07,34,10.10
2009,05,20,07,35,10.10
2009,05,20,07,36,10.10
2009,05,20,07,37,10.20
2009,05,20,07,38,10.20
2009,05,20,07,39,10.30
2009,05,20,07,40,10.30
2009,05,20,07,41,10.30
2009,05,20,07,42,10.30
2009,05,20,07,43,10.40
2009,05,20,07,44,10.40
2009,05,20,07,45,10.50
2009,05,20,07,46,10.50
2009,05,20,07,47,10.60
2009,05,20,07,48,10.60
2009,05,20,07,49,10.70
2009,05,20,07,50,10.80
2009,05,20,07,51,10.80
2009,05,20,07,52,10.90
2009,05,20,07,53,10.90
2009,05,20,07,54,10.90
2009,05,20,07,55,11.00
2009,05,20,07,56,11.00
2009,05,20,07,57,11.00
2009,05,20,07,58,11.10
2009,05,20,07,59,11.10
2009,05,20,08,00,11.20
2009,05,20,08,01,11.20
2009,05,20,08,02,11.30
2009,05,20,08,03,11.30
2009,05,20,08,04,11.30
2009,05,20,08,05,11.30
2009,05,20,08,06,11.40
2009,05,20,08,07,11.40
2009,05,20,08,08,11.40
2009,05,20,08,09,11.50
2009,05,20,08,10,11.50
2009,05,20,08,11,11.60
2009,05,20,08,12,11.60
2009,05,20,08,13,11.70
2009,05,20,08,14,11.70
2009,05,20,08,15,11.80
2009,05,20,08,16,11.80
2009,05,20,08,17,11.80
2009,05,20,08,18,11.80
2009,05,20,08,19,11.80
2009,05,20,08,20,11.90
2009,05,20,08,21,11.90
2009,05,20,08,22,11.90
2009,05,20,08,23,11.90
2009,05,20,08,24,11.90
2009,05,20,08,25,11.90
2009,05,20,08,26,12.00
2009,05,20,08,27,11.90
2009,05,20,08,28,11.90
2009,05,20,08,29,11.90
2009,05,20,08,30,11.90
2009,05,20,08,31,12.00
2009,05,20,08,32,12.00
2009,05,20,08,33,12.00
2009,05,20,08,34,12.10
2009,05,20,08,35,12.10
2009,05,20,08,36,12.20
2009,05,20,08,37,12.20
2009,05,20,08,38,12.20
2009,05,20,08,39,12.30
2009,05,20,08,40,12.30
2009,05,20,08,41,12.30
2009,05,20,08,42,12.30
2009,05,20,08,43,12.40
2009,05,20,08,44,12.40
2009,05,20,08,45,12.50
2009,05,20,08,46,12.50
2009,05,20,08,47,12.50
2009,05,20,08,48,12.60
2009,05,20,08,49,12.70
2009,05,20,08,50,12.70
2009,05,20,08,51,12.70
2009,05,20,08,52,12.70
2009,05,20,08,53,12.70
2009,05,20,08,54,12.70
2009,05,20,08,55,12.70
2009,05,20,08,56,12.70
2009,05,20,08,57,12.70
2009,05,20,08,58,12.70
2009,05,20,08,59,12.70
2009,05,20,09,00,12.70
2009,05,20,09,01,12.70
2009,05,20,09,02,12.80
2009,05,20,09,03,12.80
2009,05,20,09,04,12.80
2009,05,20,09,05,12.90
2009,05,20,09,06,12.90
2009,05,20,09,07,13.00
2009,05,20,09,08,13.10
2009,05,20,09,09,13.10
2009,05,20,09,10,13.10
2009,05,20,09,11,13.10
2009,05,20,09,12,13.10
2009,05,20,09,13,13.10
2009,05,20,09,14,13.10
2009,05,20,09,15,13.10
2009,05,20,09,16,13.20
2009,05,20,09,17,13.20
2009,05,20,09,18,13.20
2009,05,20,09,19,13.20
2009,05,20,09,20,13.20
2009,05,20,09,21,13.20
2009,05,20,09,22,13.20
2009,05,20,09,23,13.20
2009,05,20,09,24,13.20
2009,05,20,09,25,13.20
2009,05,20,09,26,13.20
2009,05,20,09,27,13.30
2009,05,20,09,28,13.40
2009,05,20,09,29,13.40
2009,05,20,09,30,13.50
2009,05,20,09,31,13.50
2009,05,20,09,32,13.60
2009,05,20,09,33,13.60
2009,05,20,09,34,13.60
2009,05,20,09,35,13.60
2009,05,20,09,36,13.60
2009,05,20,09,37,13.70
2009,05,20,09,38,13.70
2009,05,20,09,39,13.80
2009,05,20,09,40,13.70
2009,05,20,09,41,13.70
2009,05,20,09,42,13.70
2009,05,20,09,43,13.70
2009,05,20,09,44,13.70
2009,05,20,09,45,13.70
2009,05,20,09,46,13.70
2009,05,20,09,47,13.70
2009,05,20,09,48,13.70
2009,05,20,09,49,13.70
2009,05,20,09,50,13.60
2009,05,20,09,51,13.60
2009,05,20,09,52,13.60
2009,05,20,09,53,13.70
2009,05,20,09,54,13.70
2009,05,20,09,55,13.80
2009,05,20,09,56,13.80
2009,05,20,09,57,13.70
2009,05,20,09,58,13.70
2009,05,20,09,59,13.70
2009,05,20,10,00,13.70
2009,05,20,10,01,13.80
2009,05,20,10,02,13.80
2009,05,20,10,03,13.90
2009,05,20,10,04,13.90
2009,05,20,10,05,13.90
2009,05,20,10,06,13.90
2009,05,20,10,07,13.90
2009,05,20,10,08,13.90
2009,05,20,10,09,13.90
2009,05,20,10,10,13.90
2009,05,20,10,11,13.90
2009,05,20,10,12,13.90
2009,05,20,10,13,13.90
2009,05,20,10,14,13.90
2009,05,20,10,15,13.90
2009,05,20,10,16,13.90
2009,05,20,10,17,14.00
2009,05,20,10,18,14.00
2009,05,20,10,19,14.10
2009,05,20,10,20,14.10
2009,05,20,10,21,14.20
2009,05,20,10,22,14.20
2009,05,20,10,23,14.20
2009,05,20,10,24,14.20
2009,05,20,10,25,14.20
2009,05,20,10,26,14.20
2009,05,20,10,27,14.20
2009,05,20,10,28,14.10
2009,05,20,10,29,14.10
2009,05,20,10,30,14.10
2009,05,20,10,31,14.10
2009,05,20,10,32,14.10
2009,05,20,10,33,14.10
2009,05,20,10,34,14.10
2009,05,20,10,35,14.10
2009,05,20,10,36,14.10
2009,05,20,10,37,14.00
2009,05,20,10,38,13.90
2009,05,20,10,39,13.80
2009,05,20,10,40,13.80
2009,05,20,10,41,13.70
2009,05,20,10,42,13.70
2009,05,20,10,43,13.70
2009,05,20,10,44,13.70
2009,05,20,10,45,13.70
2009,05,20,10,46,13.70
2009,05,20,10,47,13.70
2009,05,20,10,48,13.70
2009,05,20,10,49,13.70
2009,05,20,10,50,13.70
2009,05,20,10,51,13.70
2009,05,20,10,52,13.70
2009,05,20,10,53,13.70
2009,05,20,10,54,13.70
2009,05,20,10,55,13.70
2009,05,20,10,56,13.70
2009,05,20,10,57,13.80
2009,05,20,10,58,13.90
2009,05,20,10,59,14.00
2009,05,20,11,00,14.10
2009,05,20,11,01,14.10
2009,05,20,11,02,14.00
2009,05,20,11,03,14.00
2009,05,20,11,04,14.00
2009,05,20,11,05,14.00
2009,05,20,11,06,14.00
2009,05,20,11,07,14.00
2009,05,20,11,08,14.00
2009,05,20,11,09,14.00
2009,05,20,11,10,14.00
2009,05,20,11,11,14.10
2009,05,20,11,12,14.20
2009,05,20,11,13,14.20
2009,05,20,11,14,14.30
2009,05,20,11,15,14.40
2009,05,20,11,16,14.40
2009,05,20,11,17,14.40
2009,05,20,11,18,14.40
2009,05,20,11,19,14.50
2009,05,20,11,20,14.60
2009,05,20,11,21,14.70
2009,05,20,11,22,14.80
2009,05,20,11,23,14.80
2009,05,20,11,24,14.80
2009,05,20,11,25,14.80
2009,05,20,11,26,14.80
2009,05,20,11,27,14.80
2009,05,20,11,28,14.80
2009,05,20,11,29,14.80
2009,05,20,11,30,14.70
2009,05,20,11,31,14.70
2009,05,20,11,32,14.60
2009,05,20,11,33,14.50
2009,05,20,11,34,14.50
2009,05,20,11,35,14.40
2009,05,20,11,36,14.40
2009,05,20,11,37,14.40
2009,05,20,11,38,14.40
2009,05,20,11,39,14.40
2009,05,20,11,40,14.40
2009,05,20,11,41,14.40
2009,05,20,11,42,14.50
2009,05,20,11,43,14.60
2009,05,20,11,44,14.70
2009,05,20,11,45,14.80
2009,05,20,11,46,15.00
2009,05,20,11,47,15.00
2009,05,20,11,48,15.20
2009,05,20,11,49,15.30
2009,05,20,11,50,15.40
2009,05,20,11,51,15.40
2009,05,20,11,52,15.30
2009,05,20,11,53,15.30
2009,05,20,11,54,15.30
2009,05,20,11,55,15.40
2009,05,20,11,56,15.60
2009,05,20,11,57,15.70
2009,05,20,11,58,15.90
2009,05,20,11,59,15.90
2009,05,20,12,00,15.90
2009,05,20,12,01,15.80
2009,05,20,12,02,15.70
2009,05,20,12,03,15.70
2009,05,20,12,04,15.70
2009,05,20,12,05,15.80
2009,05,20,12,06,15.80
2009,05,20,12,07,15.80
2009,05,20,12,08,15.80
2009,05,20,12,09,15.50
2009,05,20,12,10,15.30
2009,05,20,12,11,15.10
2009,05,20,12,12,15.00
2009,05,20,12,13,14.90
2009,05,20,12,14,14.70
2009,05,20,12,15,14.60
2009,05,20,12,16,14.50
2009,05,20,12,17,14.40
2009,05,20,12,18,14.40
2009,05,20,12,19,14.40
2009,05,20,12,20,14.40
2009,05,20,12,21,14.50
2009,05,20,12,22,14.50
2009,05,20,12,23,14.60
2009,05,20,12,24,14.60
2009,05,20,12,25,14.70
2009,05,20,12,26,14.70
2009,05,20,12,27,14.70
2009,05,20,12,28,14.70
2009,05,20,12,29,14.70
2009,05,20,12,30,14.70
2009,05,20,12,31,14.70
2009,05,20,12,32,14.70
2009,05,20,12,33,14.80
2009,05,20,12,34,14.90
2009,05,20,12,35,15.00
2009,05,20,12,36,15.00
2009,05,20,12,37,15.10
2009,05,20,12,38,15.20
2009,05,20,12,39,15.20
2009,05,20,12,40,15.30
2009,05,20,12,41,15.30
2009,05,20,12,42,15.30
2009,05,20,12,43,15.30
2009,05,20,12,44,15.40
2009,05,20,12,45,15.50
2009,05,20,12,46,15.50
2009,05,20,12,47,15.50
2009,05,20,12,48,15.50
2009,05,20,12,49,15.50
2009,05,20,12,50,15.50
2009,05,20,12,51,15.40
2009,05,20,12,52,15.20
2009,05,20,12,53,15.10
2009,05,20,12,54,15.10
2009,05,20,12,55,15.20
2009,05,20,12,56,15.30
2009,05,20,12,57,15.30
2009,05,20,12,58,15.40
2009,05,20,12,59,15.50
2009,05,20,13,00,15.60
2009,05,20,13,01,15.80
2009,05,20,13,02,15.90
2009,05,20,13,03,15.90
2009,05,20,13,04,15.90
2009,05,20,13,05,15.90
2009,05,20,13,06,15.90
2009,05,20,13,07,15.90
2009,05,20,13,08,15.90
2009,05,20,13,09,15.90
2009,05,20,13,10,15.80
2009,05,20,13,11,15.80
2009,05,20,13,12,15.80
2009,05,20,13,13,15.80
2009,05,20,13,14,15.80
2009,05,20,13,15,15.80
2009,05,20,13,16,15.80
2009,05,20,13,17,15.90
2009,05,20,13,18,15.90
2009,05,20,13,19,15.90
2009,05,20,13,20,15.90
2009,05,20,13,21,16.00
2009,05,20,13,22,16.00
2009,05,20,13,23,15.90
2009,05,20,13,24,15.80
2009,05,20,13,25,15.70
2009,05,20,13,26,15.60
2009,05,20,13,27,15.60
2009,05,20,13,28,15.50
2009,05,20,13,29,15.40
2009,05,20,13,30,15.50
2009,05,20,13,31,15.50
2009,05,20,13,32,15.60
2009,05,20,13,33,15.70
2009,05,20,13,34,15.70
2009,05,20,13,35,15.80
2009,05,20,13,36,15.80
2009,05,20,13,37,15.80
2009,05,20,13,38,15.80
2009,05,20,13,39,15.80
2009,05,20,13,40,15.80
2009,05,20,13,41,15.80
2009,05,20,13,42,15.80
2009,05,20,13,43,15.80
2009,05,20,13,44,15.80
2009,05,20,13,45,15.80
2009,05,20,13,46,15.70
2009,05,20,13,47,15.60
2009,05,20,13,48,15.60
2009,05,20,13,49,15.50
2009,05,20,13,50,15.50
2009,05,20,13,51,15.50
2009,05,20,13,52,15.60
2009,05,20,13,53,15.60
2009,05,20,13,54,15.70
2009,05,20,13,55,15.80
2009,05,20,13,56,15.80
2009,05,20,13,57,15.80
2009,05,20,13,58,15.90
2009,05,20,13,59,15.90
2009,05,20,14,00,15.90
2009,05,20,14,01,15.90
2009,05,20,14,02,16.00
2009,05,20,14,03,16.10
2009,05,20,14,04,16.20
2009,05,20,14,05,16.30
2009,05,20,14,06,16.30
2009,05,20,14,07,16.40
2009,05,20,14,08,16.40
2009,05,20,14,09,16.40
2009,05,20,14,10,16.30
2009,05,20,14,11,16.20
2009,05,20,14,12,16.10
2009,05,20,14,13,16.00
2009,05,20,14,14,15.90
2009,05,20,14,15,15.90
2009,05,20,14,16,15.90
2009,05,20,14,17,15.90
2009,05,20,14,18,15.90
2009,05,20,14,19,15.90
2009,05,20,14,20,15.90
2009,05,20,14,21,15.90
2009,05,20,14,22,15.90
2009,05,20,14,23,15.90
2009,05,20,14,24,15.90
2009,05,20,14,25,15.90
2009,05,20,14,26,15.90
2009,05,20,14,27,15.90
2009,05,20,14,28,16.00
2009,05,20,14,29,16.00
2009,05,20,14,30,15.90
2009,05,20,14,31,15.90
2009,05,20,14,32,15.90
2009,05,20,14,33,15.90
2009,05,20,14,34,15.80
2009,05,20,14,35,15.80
2009,05,20,14,36,15.80
2009,05,20,14,37,15.80
2009,05,20,14,38,15.90
2009,05,20,14,39,15.90
2009,05,20,14,40,16.00
2009,05,20,14,41,16.00
2009,05,20,14,42,16.10
2009,05,20,14,43,16.10
2009,05,20,14,44,16.10
2009,05,20,14,45,16.10
2009,05,20,14,46,16.10
2009,05,20,14,47,16.10
2009,05,20,14,48,16.20
2009,05,20,14,49,16.20
2009,05,20,14,50,16.20
2009,05,20,14,51,16.20
2009,05,20,14,52,16.20
2009,05,20,14,53,16.20
2009,05,20,14,54,16.20
2009,05,20,14,55,16.10
2009,05,20,14,56,16.10
2009,05,20,14,57,16.00
2009,05,20,14,58,15.90
2009,05,20,14,59,15.80
2009,05,20,15,00,15.80
2009,05,20,15,01,15.80
2009,05,20,15,02,15.80
2009,05,20,15,03,15.70
2009,05,20,15,04,15.60
2009,05,20,15,05,15.50
2009,05,20,15,06,15.50
2009,05,20,15,07,15.40
2009,05,20,15,08,15.40
2009,05,20,15,09,15.30
2009,05,20,15,10,15.30
2009,05,20,15,11,15.20
2009,05,20,15,12,15.20
2009,05,20,15,13,15.20
2009,05,20,15,14,15.20
2009,05,20,15,15,15.10
2009,05,20,15,16,15.00
2009,05,20,15,17,15.00
2009,05,20,15,18,15.00
2009,05,20,15,19,15.00
2009,05,20,15,20,15.00
2009,05,20,15,21,15.00
2009,05,20,15,22,15.00
2009,05,20,15,23,15.00
2009,05,20,15,24,15.00
2009,05,20,15,25,15.10
2009,05,20,15,26,15.20
2009,05,20,15,27,15.20
2009,05,20,15,28,15.30
2009,05,20,15,29,15.40
2009,05,20,15,30,15.40
2009,05,20,15,31,15.40
2009,05,20,15,32,15.40
2009,05,20,15,33,15.30
2009,05,20,15,34,15.30
2009,05,20,15,35,15.30
2009,05,20,15,36,15.30
2009,05,20,15,37,15.20
2009,05,20,15,38,15.20
2009,05,20,15,39,15.20
2009,05,20,15,40,15.20
2009,05,20,15,41,15.20
2009,05,20,15,42,15.20
2009,05,20,15,43,15.20
2009,05,20,15,44,15.30
2009,05,20,15,45,15.30
2009,05,20,15,46,15.40
2009,05,20,15,47,15.40
2009,05,20,15,48,15.40
2009,05,20,15,49,15.30
2009,05,20,15,50,15.30
2009,05,20,15,51,15.30
2009,05,20,15,52,15.30
2009,05,20,15,53,15.30
2009,05,20,15,54,15.30
2009,05,20,15,55,15.30
2009,05,20,15,56,15.30
2009,05,20,15,57,15.30
2009,05,20,15,58,15.40
2009,05,20,15,59,15.40
2009,05,20,16,00,15.40
2009,05,20,16,01,15.40
2009,05,20,16,02,15.40
2009,05,20,16,03,15.40
2009,05,20,16,04,15.40
2009,05,20,16,05,15.40
2009,05,20,16,06,15.40
2009,05,20,16,07,15.40
2009,05,20,16,08,15.40
2009,05,20,16,09,15.40
2009,05,20,16,10,15.50
2009,05,20,16,11,15.50
2009,05,20,16,12,15.50
2009,05,20,16,13,15.50
2009,05,20,16,14,15.40
2009,05,20,16,15,15.40
2009,05,20,16,16,15.40
2009,05,20,16,17,15.40
2009,05,20,16,18,15.30
2009,05,20,16,19,15.30
2009,05,20,16,20,15.30
2009,05,20,16,21,15.30
2009,05,20,16,22,15.30
2009,05,20,16,23,15.30
2009,05,20,16,24,15.30
2009,05,20,16,25,15.20
2009,05,20,16,26,15.20
2009,05,20,16,27,15.20
2009,05,20,16,28,15.20
2009,05,20,16,29,15.20
2009,05,20,16,30,15.20
2009,05,20,16,31,15.20
2009,05,20,16,32,15.20
2009,05,20,16,33,15.20
2009,05,20,16,34,15.20
2009,05,20,16,35,15.20
2009,05,20,16,36,15.30
2009,05,20,16,37,15.30
2009,05,20,16,38,15.30
2009,05,20,16,39,15.30
2009,05,20,16,40,15.30
2009,05,20,16,41,15.30
2009,05,20,16,42,15.30
2009,05,20,16,43,15.30
2009,05,20,16,44,15.30
2009,05,20,16,45,15.30
2009,05,20,16,46,15.20
2009,05,20,16,47,15.20
2009,05,20,16,48,15.20
2009,05,20,16,49,15.10
2009,05,20,16,50,15.10
2009,05,20,16,51,15.10
2009,05,20,16,52,15.10
2009,05,20,16,53,15.10
2009,05,20,16,54,15.10
2009,05,20,16,55,15.10
2009,05,20,16,56,15.10
2009,05,20,16,57,15.10
2009,05,20,16,58,15.10
2009,05,20,16,59,15.20
2009,05,20,17,00,15.20
2009,05,20,17,01,15.20
2009,05,20,17,02,15.30
2009,05,20,17,03,15.30
2009,05,20,17,04,15.30
2009,05,20,17,05,15.30
2009,05,20,17,06,15.30
2009,05,20,17,07,15.30
2009,05,20,17,08,15.30
2009,05,20,17,09,15.30
2009,05,20,17,10,15.40
2009,05,20,17,11,15.40
2009,05,20,17,12,15.40
2009,05,20,17,13,15.40
2009,05,20,17,14,15.40
2009,05,20,17,15,15.40
2009,05,20,17,16,15.40
2009,05,20,17,17,15.40
2009,05,20,17,18,15.30
2009,05,20,17,19,15.30
2009,05,20,17,20,15.30
2009,05,20,17,21,15.30
2009,05,20,17,22,15.30
2009,05,20,17,23,15.40
2009,05,20,17,24,15.40
2009,05,20,17,25,15.40
2009,05,20,17,26,15.40
2009,05,20,17,27,15.30
2009,05,20,17,28,15.30
2009,05,20,17,29,15.20
2009,05,20,17,30,15.20
2009,05,20,17,31,15.20
2009,05,20,17,32,15.10
2009,05,20,17,33,15.10
2009,05,20,17,34,15.20
2009,05,20,17,35,15.10
2009,05,20,17,36,15.10
2009,05,20,17,37,15.10
2009,05,20,17,38,15.10
2009,05,20,17,39,15.10